Terminal Aerodrome Forecast
Issued by NWS

Home | Current Version | Previous Version | Text Only | Print | Product List | Glossary On
Versions: 1 2 3 4 5 6 7 8 9 10 11 12 13 14 15 16 17 18 19
886
FTAK31 PAJN 010333 AAB
TAFASI
TAF AMD
PASI 010333Z 0104/0124 14015G25KT P6SM -RA OVC040
      TEMPO 0104/0108 21012KT 3SM -RA OVC025
     FM010800 15012KT 6SM -SHRA BKN025 OVC040
     FM011500 14007KT P6SM -RA SCT010 BKN025 OVC040=

USA.gov is the U.S. government's official web portal to all federal, state and local government web resources and services.